軌道要素
Epoch 2013 July 7.0 TT = JDT 2456480.5
T 2013 June 20.66181 TT MPC
q 1.5995911 (2000.0) P Q
n 0.15775220 Peri. 342.50877 +0.96637937 +0.25701201
a 3.3922338 Node 2.63292 -0.21217797 +0.81352795
e 0.5284549 Incl. 9.35287 -0.14522883 +0.52164844
P 6.25
From 113 observations 2013 Sept. 14-Dec. 11, mean residual 0".5.
|